GLD1028 SBBV-SBRB

Flight info

Callsign GLD1028
Flight time 2h 14m
Altitude 38000
Route ANLO1A ANBIX DCT ILNUK DCT TFE DCT LANCE DCT
Aircraft B738/M-SDFGIRY/S

Departure

Time 2026-04-25 11:34
Airport Atlas Brasil Cantanhede International Airport (SBBV)

Arrival

Time 2026-04-25 13:48
Airport Rio Branco-Plácido de Castro International Airport (SBRB)
Time Latitude Longitude Altitude Speed Heading
2026-04-25 11:18 2.84185 -60.69289 251 ft 0 kts 154°
2026-04-25 11:22 2.84194 -60.69293 279 ft 2 kts 154°
2026-04-25 11:23 2.84203 -60.69298 279 ft 2 kts 154°
2026-04-25 11:23 2.84212 -60.69302 279 ft 2 kts 154°
2026-04-25 11:23 2.84222 -60.69307 282 ft 2 kts 154°
2026-04-25 11:23 2.84231 -60.69311 280 ft 2 kts 154°
2026-04-25 11:24 2.84238 -60.69315 278 ft 0 kts 149°
2026-04-25 11:24 2.84242 -60.69315 278 ft 0 kts 98°
2026-04-25 11:24 2.84243 -60.69317 280 ft 0 kts 68°
2026-04-25 11:27 2.84252 -60.69298 280 ft 7 kts 62°
2026-04-25 11:27 2.84285 -60.69247 278 ft 9 kts 47°
2026-04-25 11:27 2.84331 -60.69260 278 ft 9 kts 261°
2026-04-25 11:27 2.84312 -60.69297 278 ft 9 kts 242°
2026-04-25 11:28 2.84274 -60.69370 278 ft 9 kts 242°
2026-04-25 11:28 2.84248 -60.69423 279 ft 8 kts 243°
2026-04-25 11:28 2.84222 -60.69475 278 ft 8 kts 243°
2026-04-25 11:28 2.84197 -60.69525 282 ft 8 kts 243°
2026-04-25 11:29 2.84172 -60.69572 278 ft 8 kts 240°
2026-04-25 11:29 2.84147 -60.69619 278 ft 7 kts 242°
2026-04-25 11:29 2.84124 -60.69664 283 ft 7 kts 244°
2026-04-25 11:29 2.84103 -60.69708 278 ft 7 kts 244°
2026-04-25 11:30 2.84082 -60.69751 278 ft 7 kts 244°
2026-04-25 11:30 2.84061 -60.69793 281 ft 7 kts 244°
2026-04-25 11:30 2.84041 -60.69834 278 ft 7 kts 244°
2026-04-25 11:30 2.84022 -60.69875 282 ft 6 kts 244°
2026-04-25 11:31 2.84002 -60.69915 278 ft 6 kts 239°
2026-04-25 11:31 2.83978 -60.69951 279 ft 6 kts 239°
2026-04-25 11:31 2.83958 -60.69989 279 ft 6 kts 245°
2026-04-25 11:31 2.83970 -60.70025 281 ft 6 kts 327°
2026-04-25 11:32 2.83988 -60.70034 279 ft 0 kts 333°
2026-04-25 11:32 2.83995 -60.70037 279 ft 6 kts 333°
2026-04-25 11:32 2.84055 -60.70068 279 ft 11 kts 333°
2026-04-25 11:33 2.84083 -60.70068 279 ft 0 kts 57°
2026-04-25 11:33 2.84111 -60.70022 279 ft 34 kts 60°
2026-04-25 11:33 2.84337 -60.69579 278 ft 107 kts 62°
2026-04-25 11:33 2.84773 -60.68727 286 ft 165 kts 62°
2026-04-25 11:34 2.85304 -60.67621 844 ft 170 kts 61°
2026-04-25 11:34 2.85810 -60.66625 1883 ft 159 kts 65°
2026-04-25 11:34 2.86122 -60.65522 2307 ft 175 kts 77°
2026-04-25 11:34 2.86572 -60.64301 2511 ft 199 kts 63°
2026-04-25 11:35 2.87253 -60.63024 2677 ft 217 kts 62°
2026-04-25 11:35 2.87658 -60.61534 2811 ft 234 kts 95°
2026-04-25 11:35 2.86982 -60.60034 3000 ft 252 kts 133°
2026-04-25 11:35 2.85400 -60.59206 3317 ft 268 kts 170°
2026-04-25 11:36 2.83531 -60.59178 3980 ft 270 kts 181°
2026-04-25 11:36 2.81649 -60.59295 4656 ft 272 kts 182°
2026-04-25 11:36 2.79754 -60.59426 5302 ft 275 kts 182°
2026-04-25 11:36 2.77827 -60.59551 5924 ft 278 kts 182°
2026-04-25 11:37 2.75919 -60.59665 6588 ft 280 kts 182°
2026-04-25 11:37 2.73952 -60.59774 7200 ft 285 kts 182°
2026-04-25 11:37 2.71956 -60.59878 7915 ft 289 kts 181°
2026-04-25 11:37 2.69938 -60.59978 8705 ft 292 kts 182°
2026-04-25 11:38 2.67902 -60.60076 9447 ft 294 kts 182°
2026-04-25 11:38 2.65841 -60.60173 10076 ft 299 kts 182°
2026-04-25 11:38 2.63710 -60.60270 10364 ft 317 kts 182°
2026-04-25 11:38 2.61443 -60.60374 10625 ft 333 kts 182°
2026-04-25 11:39 2.59112 -60.60485 11267 ft 333 kts 182°
2026-04-25 11:39 2.56844 -60.60601 12377 ft 319 kts 182°
2026-04-25 11:39 2.54665 -60.60704 13464 ft 310 kts 182°
2026-04-25 11:39 2.52495 -60.60789 14044 ft 317 kts 181°
2026-04-25 11:40 2.50246 -60.60863 14210 ft 337 kts 181°
2026-04-25 11:40 2.47805 -60.60942 14441 ft 353 kts 181°
2026-04-25 11:40 2.45341 -60.61026 15112 ft 352 kts 181°
2026-04-25 11:40 2.42964 -60.61101 16120 ft 340 kts 181°
2026-04-25 11:41 2.40623 -60.61174 17084 ft 334 kts 181°
2026-04-25 11:41 2.38280 -60.61260 17611 ft 342 kts 182°
2026-04-25 11:41 2.35807 -60.61375 17767 ft 361 kts 183°
2026-04-25 11:41 2.33276 -60.61524 17960 ft 375 kts 184°
2026-04-25 11:42 2.30658 -60.61717 18518 ft 376 kts 185°
2026-04-25 11:42 2.28078 -60.61948 19346 ft 366 kts 186°
2026-04-25 11:42 2.25583 -60.62215 20214 ft 358 kts 187°
2026-04-25 11:42 2.23101 -60.62528 20786 ft 361 kts 188°
2026-04-25 11:43 2.20581 -60.62894 21001 ft 374 kts 189°
2026-04-25 11:43 2.17958 -60.63330 21110 ft 388 kts 190°
2026-04-25 11:43 2.15278 -60.63835 21441 ft 395 kts 192°
2026-04-25 11:43 2.12599 -60.64408 22132 ft 390 kts 193°
2026-04-25 11:44 2.09986 -60.65033 22979 ft 381 kts 194°
2026-04-25 11:44 2.07435 -60.65707 23642 ft 379 kts 196°
2026-04-25 11:44 2.04905 -60.66438 23902 ft 387 kts 197°
2026-04-25 11:44 2.02285 -60.67259 23967 ft 400 kts 198°
2026-04-25 11:45 1.99611 -60.68160 24082 ft 410 kts 199°
2026-04-25 11:45 1.96923 -60.69130 24472 ft 410 kts 200°
2026-04-25 11:45 1.94278 -60.70150 25098 ft 404 kts 201°
2026-04-25 11:45 1.91697 -60.71211 25729 ft 399 kts 202°
2026-04-25 11:46 1.89150 -60.72324 26131 ft 401 kts 204°
2026-04-25 11:46 1.86589 -60.73513 26264 ft 411 kts 205°
2026-04-25 11:46 1.83980 -60.74796 26311 ft 422 kts 206°
2026-04-25 11:46 1.81385 -60.76145 26495 ft 428 kts 207°
2026-04-25 11:47 1.78777 -60.77575 26935 ft 427 kts 208°
2026-04-25 11:47 1.76214 -60.79055 27509 ft 423 kts 210°
2026-04-25 11:47 1.73711 -60.80577 28027 ft 421 kts 211°
2026-04-25 11:47 1.71229 -60.82160 28306 ft 425 kts 212°
2026-04-25 11:48 1.66332 -60.85688 28414 ft 445 kts 226°
2026-04-25 11:48 1.62590 -60.90749 28546 ft 460 kts 236°
2026-04-25 11:49 1.59075 -60.96197 28841 ft 469 kts 237°
2026-04-25 11:49 1.57311 -60.98937 29333 ft 464 kts 236°
2026-04-25 11:49 1.55585 -61.01560 30164 ft 452 kts 234°
2026-04-25 11:50 1.53706 -61.04015 30896 ft 439 kts 228°
2026-04-25 11:50 1.51617 -61.06226 31323 ft 437 kts 222°
2026-04-25 11:50 1.49322 -61.08232 31498 ft 441 kts 217°
2026-04-25 11:50 1.46869 -61.10094 31669 ft 444 kts 214°
2026-04-25 11:51 1.44325 -61.11866 31916 ft 446 kts 212°
2026-04-25 11:51 1.41746 -61.13587 32188 ft 447 kts 212°
2026-04-25 11:51 1.39142 -61.15295 32440 ft 448 kts 212°
2026-04-25 11:51 1.36533 -61.17002 32672 ft 450 kts 212°
2026-04-25 11:52 1.33913 -61.18722 32894 ft 452 kts 212°
2026-04-25 11:52 1.31280 -61.20460 33114 ft 454 kts 212°
2026-04-25 11:52 1.28646 -61.22206 33345 ft 455 kts 212°
2026-04-25 11:52 1.26004 -61.23962 33560 ft 457 kts 212°
2026-04-25 11:53 1.23359 -61.25723 33774 ft 458 kts 212°
2026-04-25 11:53 1.20692 -61.27501 33975 ft 460 kts 212°
2026-04-25 11:53 1.18027 -61.29278 34154 ft 462 kts 212°
2026-04-25 11:53 1.15354 -61.31060 34344 ft 463 kts 212°
2026-04-25 11:54 1.12675 -61.32846 34563 ft 463 kts 212°
2026-04-25 11:54 1.09990 -61.34635 34780 ft 463 kts 212°
2026-04-25 11:54 1.04659 -61.38188 35150 ft 465 kts 212°
2026-04-25 11:55 1.01967 -61.39981 35293 ft 466 kts 212°
2026-04-25 11:55 0.99263 -61.41783 35441 ft 467 kts 212°
2026-04-25 11:55 0.96562 -61.43582 35686 ft 466 kts 212°
2026-04-25 11:55 0.93866 -61.45379 35963 ft 464 kts 212°
2026-04-25 11:56 0.91181 -61.47167 36208 ft 463 kts 212°
2026-04-25 11:56 0.88507 -61.48949 36410 ft 463 kts 212°
2026-04-25 11:56 0.85824 -61.50737 36611 ft 463 kts 212°
2026-04-25 11:56 0.83151 -61.52517 36821 ft 462 kts 211°
2026-04-25 11:57 0.80478 -61.54298 37046 ft 461 kts 211°
2026-04-25 11:57 0.77818 -61.56070 37247 ft 460 kts 211°
2026-04-25 11:57 0.75149 -61.57848 37436 ft 460 kts 211°
2026-04-25 11:57 0.72488 -61.59620 37631 ft 459 kts 211°
2026-04-25 11:58 0.69837 -61.61386 37821 ft 459 kts 211°
2026-04-25 11:58 0.67183 -61.63154 37991 ft 458 kts 211°
2026-04-25 11:58 0.64517 -61.64929 37981 ft 461 kts 212°
2026-04-25 11:59 0.59186 -61.68480 37988 ft 460 kts 212°
2026-04-25 11:59 0.53881 -61.72014 37986 ft 457 kts 212°
2026-04-25 12:00 0.45978 -61.77278 37990 ft 454 kts 211°
2026-04-25 12:01 0.38111 -61.82518 37993 ft 453 kts 211°
2026-04-25 12:01 0.32893 -61.85993 37988 ft 453 kts 211°
2026-04-25 12:02 0.24990 -61.91256 38021 ft 457 kts 211°
2026-04-25 12:02 0.19657 -61.94808 37974 ft 464 kts 211°
2026-04-25 12:03 0.14262 -61.98400 37986 ft 466 kts 211°
2026-04-25 12:03 0.08889 -62.01979 37990 ft 467 kts 211°
2026-04-25 12:04 0.03482 -62.05580 37985 ft 467 kts 211°
2026-04-25 12:04 -0.01917 -62.09177 37994 ft 465 kts 211°
2026-04-25 12:05 -0.07299 -62.12762 37981 ft 463 kts 211°
2026-04-25 12:05 -0.12652 -62.16327 37980 ft 461 kts 211°
2026-04-25 12:06 -0.17968 -62.19868 37983 ft 458 kts 211°
2026-04-25 12:06 -0.23226 -62.23370 37988 ft 455 kts 211°
2026-04-25 12:07 -0.28487 -62.26874 37981 ft 453 kts 211°
2026-04-25 12:07 -0.33736 -62.30369 37979 ft 453 kts 211°
2026-04-25 12:08 -0.38981 -62.33862 37987 ft 453 kts 211°
2026-04-25 12:08 -0.44219 -62.37351 37990 ft 453 kts 211°
2026-04-25 12:09 -0.49463 -62.40843 37988 ft 454 kts 211°
2026-04-25 12:09 -0.54724 -62.44347 37992 ft 455 kts 211°
2026-04-25 12:10 -0.60002 -62.47862 37987 ft 457 kts 211°
2026-04-25 12:10 -0.65312 -62.51399 37987 ft 459 kts 211°
2026-04-25 12:11 -0.70630 -62.54941 37998 ft 459 kts 211°
2026-04-25 12:11 -0.75919 -62.58465 38003 ft 460 kts 211°
2026-04-25 12:12 -0.80392 -62.61444 37980 ft 462 kts 211°
2026-04-25 12:12 -0.86626 -62.65598 37983 ft 461 kts 211°
2026-04-25 12:13 -0.91946 -62.69143 37980 ft 458 kts 211°
2026-04-25 12:13 -0.97222 -62.72659 37980 ft 454 kts 211°
2026-04-25 12:14 -1.02460 -62.76149 37980 ft 451 kts 211°
2026-04-25 12:14 -1.07674 -62.79622 37987 ft 449 kts 212°
2026-04-25 12:15 -1.12860 -62.83077 37991 ft 448 kts 212°
2026-04-25 12:15 -1.18043 -62.86531 37994 ft 448 kts 212°
2026-04-25 12:16 -1.23253 -62.90002 38001 ft 450 kts 212°
2026-04-25 12:16 -1.28439 -62.93458 38002 ft 452 kts 212°
2026-04-25 12:17 -1.33694 -62.96960 37997 ft 455 kts 212°
2026-04-25 12:17 -1.38973 -63.00478 37995 ft 457 kts 211°
2026-04-25 12:18 -1.44278 -63.04014 38000 ft 459 kts 211°
2026-04-25 12:18 -1.49601 -63.07563 37998 ft 461 kts 211°
2026-04-25 12:19 -1.57611 -63.12903 37994 ft 462 kts 211°
2026-04-25 12:20 -1.62919 -63.16443 37981 ft 454 kts 211°
2026-04-25 12:20 -1.68139 -63.19924 37995 ft 450 kts 211°
2026-04-25 12:21 -1.73304 -63.23380 38002 ft 449 kts 213°
2026-04-25 12:21 -1.78094 -63.27421 38001 ft 451 kts 220°
2026-04-25 12:22 -1.81928 -63.30964 37992 ft 451 kts 220°
2026-04-25 12:22 -1.86573 -63.35248 38001 ft 452 kts 220°
2026-04-25 12:23 -1.91196 -63.39453 38003 ft 452 kts 220°
2026-04-25 12:23 -1.95877 -63.43679 38001 ft 453 kts 220°
2026-04-25 12:24 -2.00566 -63.47906 37998 ft 454 kts 220°
2026-04-25 12:24 -2.05264 -63.52143 38002 ft 455 kts 220°
2026-04-25 12:25 -2.09981 -63.56398 38001 ft 456 kts 220°
2026-04-25 12:25 -2.14692 -63.60648 38001 ft 457 kts 220°
2026-04-25 12:26 -2.19379 -63.64879 38000 ft 457 kts 220°
2026-04-25 12:26 -2.24099 -63.69138 38000 ft 457 kts 220°
2026-04-25 12:27 -2.28823 -63.73402 38003 ft 457 kts 220°
2026-04-25 12:27 -2.33541 -63.77661 38004 ft 457 kts 220°
2026-04-25 12:28 -2.38255 -63.81916 38004 ft 456 kts 220°
2026-04-25 12:28 -2.42958 -63.86162 37999 ft 455 kts 220°
2026-04-25 12:29 -2.47662 -63.90410 38006 ft 455 kts 220°
2026-04-25 12:29 -2.52357 -63.94650 38005 ft 454 kts 220°
2026-04-25 12:30 -2.57051 -63.98888 38006 ft 454 kts 220°
2026-04-25 12:30 -2.61712 -64.03099 38010 ft 454 kts 220°
2026-04-25 12:31 -2.66401 -64.07334 38000 ft 455 kts 221°
2026-04-25 12:31 -2.71100 -64.11579 38016 ft 455 kts 221°
2026-04-25 12:32 -2.75803 -64.15828 38008 ft 456 kts 221°
2026-04-25 12:32 -2.80523 -64.20092 38011 ft 458 kts 221°
2026-04-25 12:33 -2.85254 -64.24368 38017 ft 459 kts 221°
2026-04-25 12:33 -2.90003 -64.28660 38009 ft 460 kts 221°
2026-04-25 12:34 -2.94767 -64.32967 38006 ft 462 kts 221°
2026-04-25 12:34 -2.99534 -64.37276 38015 ft 463 kts 220°
2026-04-25 12:35 -3.04318 -64.41601 38009 ft 464 kts 220°
2026-04-25 12:35 -3.09112 -64.45936 38008 ft 464 kts 220°
2026-04-25 12:36 -3.13902 -64.50268 38012 ft 464 kts 221°
2026-04-25 12:36 -3.18693 -64.54602 38006 ft 464 kts 221°
2026-04-25 12:37 -3.23481 -64.58934 38003 ft 463 kts 221°
2026-04-25 12:37 -3.28260 -64.63258 38018 ft 463 kts 221°
2026-04-25 12:38 -3.32997 -64.67546 38009 ft 462 kts 221°
2026-04-25 12:38 -3.37771 -64.71846 37990 ft 461 kts 218°
2026-04-25 12:39 -3.43146 -64.75243 38007 ft 456 kts 206°
2026-04-25 12:39 -3.48793 -64.78146 38006 ft 455 kts 205°
2026-04-25 12:40 -3.54429 -64.81049 38007 ft 455 kts 206°
2026-04-25 12:40 -3.60046 -64.83984 38012 ft 455 kts 206°
2026-04-25 12:41 -3.65651 -64.86934 38014 ft 455 kts 206°
2026-04-25 12:41 -3.71258 -64.89891 38014 ft 455 kts 206°
2026-04-25 12:42 -3.76864 -64.92847 38016 ft 456 kts 206°
2026-04-25 12:42 -3.82486 -64.95811 38010 ft 456 kts 206°
2026-04-25 12:43 -3.88077 -64.98758 38007 ft 457 kts 206°
2026-04-25 12:43 -3.96536 -65.03219 38019 ft 459 kts 206°
2026-04-25 12:44 -4.02195 -65.06203 38016 ft 460 kts 206°
2026-04-25 12:45 -4.10702 -65.10691 38019 ft 462 kts 206°
2026-04-25 12:45 -4.19247 -65.15200 38016 ft 463 kts 206°
2026-04-25 12:46 -4.24906 -65.18186 38012 ft 463 kts 206°
2026-04-25 12:46 -4.30599 -65.21191 38016 ft 462 kts 206°
2026-04-25 12:47 -4.36291 -65.24196 38012 ft 462 kts 206°
2026-04-25 12:47 -4.41972 -65.27195 38008 ft 461 kts 206°
2026-04-25 12:48 -4.47642 -65.30191 38018 ft 460 kts 206°
2026-04-25 12:48 -4.53309 -65.33184 38005 ft 460 kts 206°
2026-04-25 12:49 -4.58970 -65.36174 38009 ft 460 kts 206°
2026-04-25 12:49 -4.64631 -65.39165 37995 ft 460 kts 206°
2026-04-25 12:50 -4.70258 -65.42139 37988 ft 460 kts 206°
2026-04-25 12:50 -4.75929 -65.45136 37980 ft 461 kts 206°
2026-04-25 12:51 -4.81606 -65.48137 37979 ft 462 kts 206°
2026-04-25 12:51 -4.87296 -65.51146 37972 ft 462 kts 205°
2026-04-25 12:52 -4.92995 -65.54161 38020 ft 463 kts 205°
2026-04-25 12:52 -4.98701 -65.57179 38016 ft 464 kts 205°
2026-04-25 12:53 -5.04425 -65.60207 38018 ft 465 kts 205°
2026-04-25 12:53 -5.10144 -65.63234 38006 ft 466 kts 206°
2026-04-25 12:54 -5.15880 -65.66270 38024 ft 466 kts 206°
2026-04-25 12:54 -5.21595 -65.69296 38021 ft 467 kts 206°
2026-04-25 12:55 -5.26404 -65.71842 38018 ft 467 kts 206°
2026-04-25 12:55 -5.33070 -65.75373 38012 ft 465 kts 206°
2026-04-25 12:56 -5.38799 -65.78408 38013 ft 464 kts 206°
2026-04-25 12:56 -5.44499 -65.81428 38015 ft 462 kts 206°
2026-04-25 12:57 -5.50174 -65.84436 38017 ft 460 kts 206°
2026-04-25 12:57 -5.55830 -65.87434 38018 ft 459 kts 206°
2026-04-25 12:58 -5.61467 -65.90423 38018 ft 457 kts 205°
2026-04-25 12:58 -5.67054 -65.93386 38017 ft 456 kts 205°
2026-04-25 12:59 -5.72663 -65.96361 38020 ft 456 kts 205°
2026-04-25 12:59 -5.78275 -65.99338 38019 ft 456 kts 205°
2026-04-25 13:00 -5.82030 -66.01331 38022 ft 456 kts 205°
2026-04-25 13:00 -5.89511 -66.05302 38023 ft 458 kts 205°
2026-04-25 13:01 -5.95146 -66.08293 38029 ft 458 kts 205°
2026-04-25 13:01 -6.00796 -66.11294 38021 ft 460 kts 205°
2026-04-25 13:02 -6.06453 -66.14299 38024 ft 460 kts 205°
2026-04-25 13:02 -6.12121 -66.17311 38021 ft 461 kts 205°
2026-04-25 13:03 -6.17798 -66.20328 38024 ft 461 kts 205°
2026-04-25 13:03 -6.21666 -66.22384 38021 ft 461 kts 205°
2026-04-25 13:04 -6.24439 -66.23858 38019 ft 461 kts 205°
2026-04-25 13:04 -6.30107 -66.26873 38022 ft 461 kts 205°
2026-04-25 13:05 -6.35130 -66.29545 38020 ft 460 kts 205°
2026-04-25 13:05 -6.37703 -66.30914 38020 ft 460 kts 205°
2026-04-25 13:06 -6.43359 -66.33923 38021 ft 459 kts 205°
2026-04-25 13:06 -6.49035 -66.36861 38021 ft 459 kts 204°
2026-04-25 13:07 -6.54733 -66.39745 38022 ft 458 kts 204°
2026-04-25 13:07 -6.59462 -66.42142 38022 ft 458 kts 204°
2026-04-25 13:08 -6.65142 -66.45032 38025 ft 457 kts 204°
2026-04-25 13:08 -6.70814 -66.47925 38018 ft 457 kts 204°
2026-04-25 13:09 -6.77399 -66.51287 38017 ft 457 kts 204°
2026-04-25 13:09 -6.82112 -66.53695 38021 ft 456 kts 204°
2026-04-25 13:10 -6.87777 -66.56588 38017 ft 456 kts 204°
2026-04-25 13:10 -6.93441 -66.59481 38019 ft 456 kts 204°
2026-04-25 13:11 -6.99106 -66.62376 38015 ft 457 kts 205°
2026-04-25 13:11 -7.04774 -66.65273 38030 ft 457 kts 205°
2026-04-25 13:12 -7.10460 -66.68180 38017 ft 458 kts 205°
2026-04-25 13:12 -7.15190 -66.70599 38020 ft 458 kts 205°
2026-04-25 13:13 -7.21844 -66.74004 38023 ft 459 kts 205°
2026-04-25 13:13 -7.27541 -66.76919 38016 ft 460 kts 205°
2026-04-25 13:14 -7.33205 -66.79818 38018 ft 460 kts 205°
2026-04-25 13:14 -7.38909 -66.82738 38020 ft 460 kts 205°
2026-04-25 13:15 -7.44619 -66.85663 38030 ft 460 kts 205°
2026-04-25 13:15 -7.50327 -66.88587 38016 ft 460 kts 205°
2026-04-25 13:16 -7.56034 -66.91512 38016 ft 460 kts 205°
2026-04-25 13:16 -7.61732 -66.94433 38022 ft 459 kts 205°
2026-04-25 13:17 -7.67430 -66.97355 38015 ft 459 kts 205°
2026-04-25 13:17 -7.73121 -67.00274 38012 ft 459 kts 205°
2026-04-25 13:18 -7.75938 -67.01719 37845 ft 461 kts 205°
2026-04-25 13:18 -7.78847 -67.03211 37341 ft 464 kts 205°
2026-04-25 13:18 -7.81678 -67.04664 36773 ft 462 kts 205°
2026-04-25 13:18 -7.84544 -67.06135 36277 ft 460 kts 205°
2026-04-25 13:19 -7.87379 -67.07591 35909 ft 455 kts 205°
2026-04-25 13:19 -7.90193 -67.09037 35461 ft 452 kts 205°
2026-04-25 13:19 -7.92981 -67.10469 35059 ft 449 kts 205°
2026-04-25 13:19 -7.94862 -67.11436 34779 ft 447 kts 205°
2026-04-25 13:20 -7.98523 -67.13316 34226 ft 444 kts 205°
2026-04-25 13:20 -8.01274 -67.14729 33761 ft 443 kts 205°
2026-04-25 13:20 -8.04010 -67.16135 33330 ft 440 kts 205°
2026-04-25 13:20 -8.06731 -67.17533 32906 ft 437 kts 205°
2026-04-25 13:21 -8.09428 -67.18919 32495 ft 434 kts 205°
2026-04-25 13:21 -8.12108 -67.20297 32083 ft 431 kts 205°
2026-04-25 13:21 -8.14777 -67.21669 31689 ft 429 kts 205°
2026-04-25 13:21 -8.17425 -67.23031 31301 ft 426 kts 205°
2026-04-25 13:22 -8.20064 -67.24388 30889 ft 425 kts 205°
2026-04-25 13:22 -8.22689 -67.25738 30499 ft 422 kts 205°
2026-04-25 13:22 -8.25309 -67.27086 30085 ft 421 kts 205°
2026-04-25 13:23 -8.30500 -67.29757 29207 ft 416 kts 205°
2026-04-25 13:23 -8.33068 -67.31079 28794 ft 413 kts 205°
2026-04-25 13:23 -8.35625 -67.32395 28373 ft 410 kts 205°
2026-04-25 13:23 -8.38123 -67.33681 27975 ft 407 kts 205°
2026-04-25 13:24 -8.40643 -67.34978 27571 ft 405 kts 206°
2026-04-25 13:24 -8.43143 -67.36266 27171 ft 402 kts 206°
2026-04-25 13:24 -8.45627 -67.37545 26781 ft 400 kts 206°
2026-04-25 13:24 -8.48097 -67.38817 26398 ft 398 kts 206°
2026-04-25 13:25 -8.50559 -67.40086 25988 ft 396 kts 206°
2026-04-25 13:25 -8.53014 -67.41351 25590 ft 395 kts 206°
2026-04-25 13:25 -8.55453 -67.42608 25190 ft 394 kts 206°
2026-04-25 13:25 -8.57895 -67.43866 24799 ft 392 kts 206°
2026-04-25 13:26 -8.60326 -67.45119 24400 ft 391 kts 206°
2026-04-25 13:26 -8.62743 -67.46365 24009 ft 390 kts 206°
2026-04-25 13:26 -8.65168 -67.47616 23616 ft 390 kts 206°
2026-04-25 13:26 -8.67580 -67.48860 23155 ft 389 kts 206°
2026-04-25 13:27 -8.69950 -67.50082 22760 ft 386 kts 206°
2026-04-25 13:27 -8.72332 -67.51311 22362 ft 383 kts 206°
2026-04-25 13:27 -8.74701 -67.52534 21973 ft 381 kts 206°
2026-04-25 13:27 -8.77054 -67.53748 21579 ft 378 kts 206°
2026-04-25 13:28 -8.79385 -67.54951 21207 ft 375 kts 206°
2026-04-25 13:28 -8.80928 -67.55747 20960 ft 374 kts 206°
2026-04-25 13:28 -8.84007 -67.57337 20466 ft 371 kts 206°
2026-04-25 13:28 -8.86296 -67.58519 20103 ft 368 kts 206°
2026-04-25 13:29 -8.88572 -67.59694 19717 ft 367 kts 206°
2026-04-25 13:29 -8.90843 -67.60867 19337 ft 365 kts 206°
2026-04-25 13:29 -8.93089 -67.62027 18960 ft 358 kts 206°
2026-04-25 13:30 -8.97412 -67.64262 18246 ft 341 kts 206°
2026-04-25 13:30 -8.99498 -67.65340 17860 ft 332 kts 206°
2026-04-25 13:30 -9.01531 -67.66391 17505 ft 324 kts 206°
2026-04-25 13:31 -9.05517 -67.68451 16853 ft 322 kts 206°
2026-04-25 13:31 -9.07523 -67.69487 16532 ft 327 kts 206°
2026-04-25 13:31 -9.09575 -67.70547 16198 ft 334 kts 206°
2026-04-25 13:31 -9.11656 -67.71623 15840 ft 336 kts 206°
2026-04-25 13:32 -9.13742 -67.72702 15477 ft 336 kts 206°
2026-04-25 13:32 -9.15816 -67.73775 15135 ft 334 kts 206°
2026-04-25 13:32 -9.17883 -67.74844 14786 ft 334 kts 206°
2026-04-25 13:32 -9.19949 -67.75913 14431 ft 333 kts 206°
2026-04-25 13:33 -9.22005 -67.76977 14171 ft 329 kts 206°
2026-04-25 13:33 -9.24032 -67.78027 13911 ft 326 kts 206°
2026-04-25 13:33 -9.26045 -67.79069 13571 ft 324 kts 206°
2026-04-25 13:33 -9.27375 -67.79758 13336 ft 324 kts 206°
2026-04-25 13:34 -9.30050 -67.81142 12883 ft 322 kts 206°
2026-04-25 13:34 -9.32033 -67.82169 12552 ft 320 kts 206°
2026-04-25 13:34 -9.33988 -67.83182 12242 ft 318 kts 206°
2026-04-25 13:34 -9.35955 -67.84201 11922 ft 317 kts 206°
2026-04-25 13:35 -9.37914 -67.85215 11600 ft 315 kts 206°
2026-04-25 13:35 -9.39863 -67.86225 11289 ft 314 kts 206°
2026-04-25 13:35 -9.41797 -67.87227 11052 ft 310 kts 206°
2026-04-25 13:35 -9.43691 -67.88209 10955 ft 300 kts 206°
2026-04-25 13:36 -9.45530 -67.89163 10781 ft 295 kts 206°
2026-04-25 13:36 -9.47356 -67.90110 10500 ft 294 kts 206°
2026-04-25 13:36 -9.49177 -67.91053 10187 ft 294 kts 206°
2026-04-25 13:36 -9.50997 -67.91996 9909 ft 293 kts 206°
2026-04-25 13:37 -9.52808 -67.92936 9619 ft 292 kts 206°
2026-04-25 13:37 -9.54609 -67.93869 9312 ft 290 kts 206°
2026-04-25 13:37 -9.56403 -67.94800 9021 ft 290 kts 206°
2026-04-25 13:37 -9.58195 -67.95729 8737 ft 289 kts 206°
2026-04-25 13:38 -9.59983 -67.96657 8444 ft 288 kts 206°
2026-04-25 13:38 -9.61761 -67.97579 8180 ft 286 kts 206°
2026-04-25 13:38 -9.63531 -67.98498 7915 ft 286 kts 206°
2026-04-25 13:38 -9.65302 -67.99417 7639 ft 285 kts 206°
2026-04-25 13:39 -9.67062 -68.00331 7363 ft 284 kts 206°
2026-04-25 13:39 -9.68819 -68.01243 7099 ft 283 kts 206°
2026-04-25 13:39 -9.70565 -68.02149 6843 ft 282 kts 206°
2026-04-25 13:39 -9.72308 -68.03054 6572 ft 281 kts 206°
2026-04-25 13:40 -9.74044 -68.03956 6293 ft 280 kts 206°
2026-04-25 13:40 -9.75772 -68.04854 6042 ft 278 kts 206°
2026-04-25 13:40 -9.77486 -68.05744 5777 ft 276 kts 206°
2026-04-25 13:40 -9.79194 -68.06631 5503 ft 275 kts 206°
2026-04-25 13:41 -9.80894 -68.07515 5310 ft 271 kts 206°
2026-04-25 13:41 -9.82543 -68.08372 5185 ft 264 kts 206°
2026-04-25 13:41 -9.84153 -68.09210 5084 ft 256 kts 205°
2026-04-25 13:41 -9.85713 -68.10021 5012 ft 248 kts 205°
2026-04-25 13:42 -9.87225 -68.10806 4923 ft 240 kts 205°
2026-04-25 13:42 -9.88708 -68.11539 4770 ft 234 kts 196°
2026-04-25 13:42 -9.90253 -68.11603 4684 ft 215 kts 159°
2026-04-25 13:42 -9.91491 -68.10940 4591 ft 198 kts 137°
2026-04-25 13:43 -9.92413 -68.09908 4221 ft 195 kts 123°
2026-04-25 13:43 -9.93215 -68.08827 3969 ft 192 kts 124°
2026-04-25 13:43 -9.94021 -68.07746 3704 ft 191 kts 124°
2026-04-25 13:43 -9.94816 -68.06682 3482 ft 189 kts 124°
2026-04-25 13:44 -9.95608 -68.05623 3229 ft 188 kts 124°
2026-04-25 13:44 -9.96216 -68.04476 3036 ft 184 kts 94°
2026-04-25 13:44 -9.95885 -68.03300 2953 ft 174 kts 55°
2026-04-25 13:44 -9.95205 -68.02299 2829 ft 171 kts 57°
2026-04-25 13:45 -9.94558 -68.01310 2711 ft 166 kts 57°
2026-04-25 13:45 -9.93926 -68.00334 2613 ft 165 kts 58°
2026-04-25 13:45 -9.93292 -67.99349 2511 ft 168 kts 57°
2026-04-25 13:45 -9.92651 -67.98368 2399 ft 164 kts 57°
2026-04-25 13:46 -9.92017 -67.97412 2264 ft 167 kts 57°
2026-04-25 13:46 -9.91378 -67.96417 2043 ft 168 kts 58°
2026-04-25 13:46 -9.90754 -67.95436 1822 ft 165 kts 58°
2026-04-25 13:46 -9.90131 -67.94458 1623 ft 165 kts 59°
2026-04-25 13:47 -9.89512 -67.93486 1431 ft 163 kts 58°
2026-04-25 13:47 -9.88885 -67.92501 1201 ft 166 kts 56°
2026-04-25 13:47 -9.88254 -67.91509 986 ft 169 kts 56°
2026-04-25 13:47 -9.87612 -67.90499 766 ft 168 kts 55°
2026-04-25 13:48 -9.86982 -67.89513 643 ft 161 kts 56°
2026-04-25 13:48 -9.86504 -67.88766 616 ft 67 kts 57°
2026-04-25 13:48 -9.86384 -67.88632 611 ft 13 kts 31°
2026-04-25 13:48 -9.86389 -67.88591 611 ft 6 kts 179°
2026-04-25 13:49 -9.86417 -67.88626 610 ft 9 kts 240°
2026-04-25 13:49 -9.86471 -67.88715 610 ft 17 kts 237°
2026-04-25 13:49 -9.86533 -67.88812 607 ft 16 kts 237°
2026-04-25 13:49 -9.86593 -67.88906 609 ft 16 kts 237°
2026-04-25 13:50 -9.86651 -67.88997 614 ft 15 kts 237°
2026-04-25 13:50 -9.86706 -67.89083 613 ft 14 kts 237°
2026-04-25 13:50 -9.86759 -67.89165 620 ft 14 kts 238°
2026-04-25 13:50 -9.86779 -67.89255 625 ft 13 kts 275°
2026-04-25 13:51 -9.86762 -67.89344 629 ft 13 kts 282°
2026-04-25 13:51 -9.86758 -67.89362 630 ft 0 kts 282°
2026-04-25 13:52 -9.86756 -67.89375 627 ft 4 kts 282°
2026-04-25 13:52 -9.86749 -67.89403 627 ft 4 kts 282°
2026-04-25 13:52 -9.86743 -67.89433 629 ft 6 kts 281°
2026-04-25 13:53 -9.86732 -67.89485 627 ft 9 kts 282°
2026-04-25 13:53 -9.86721 -67.89549 633 ft 9 kts 271°
2026-04-25 13:53 -9.86738 -67.89609 628 ft 8 kts 267°
2026-04-25 13:53 -9.86720 -67.89626 635 ft 3 kts 331°
2026-04-25 13:54 -9.86703 -67.89638 625 ft 3 kts 326°
2026-04-25 13:54 -9.86691 -67.89646 628 ft 1 kts 326°
2026-04-25 13:54 -9.86690 -67.89646 628 ft 0 kts 326°